Vorticity
2 7 9 5 7 5 5 7 11 12 11 7 7 6 3 10 14 8 8 0 1 -0 5 1 4 7 4 4 4 4 6 9 10 9 10 7 6 5 4 4 3 3 4
13 7 9 10 11 5 5 4 5 10 3 11 12 11 22 18 33 21 17 5 -6 3 33 5 11 4 6 6 7 7 4 5 6 8 8 7 8 7 8 8 7 7 6
7 6 8 10 9 3 3 6 10 8 7 6 10 25 23 4 49 -25 25 17 13 29 40 22 -8 -0 15 12 2 2 3 2 3 3 3 3 6 4 3 4 5 5 4
7 1 4 11 12 13 7 4 5 6 9 3 10 61 13 35 13 30 3 10 17 -6 42 75 39 -19 21 14 1 8 -1 8 6 5 1 3 4 4 5 6 7 7 6
8 5 -1 -0 5 2 8 9 5 1 3 -6 -40 3 3 3 -19 23 -29 -2 -3 33 14 -8 65 25 73 68 11 -4 10 28 -9 20 13 6 8 1 10 3 1 6 7
20 14 17 20 11 5 4 12 19 7 5 -1 32 106 10 -7 21 7 -39 -19 -6 30 2 20 15 -1 -6 37 88 -26 0 45 38 8 69 47 -10 6 -7 23 -11 7 9
-12 28 -4 -4 -26 33 3 19 13 16 13 4 -3 -6 -1 41 -10 3 17 8 13 5 7 5 8 5 6 3 -2 5 7 9 -0 -7 -5 87 19 -1 10 -2 0 30 2
7 -49 17 9 3 -6 6 -7 2 16 19 5 13 14 57 -3 -2 18 -3 20 -10 4 7 2 3 -0 6 9 4 7 1 2 3 7 5 -3 -3 19 28 27 3 23 27
48 47 7 54 32 8 55 3 3 -3 7 12 8 3 13 27 -22 8 3 -15 1 5 7 2 7 3 7 7 12 17 -8 11 4 7 19 -1 6 15 8 -2 40 -29 22
-23 -7 13 31 20 -8 -16 10 63 -12 9 7 3 20 7 5 -3 -11 -5 9 16 12 5 4 5 2 13 -2 13 2 1 9 8 16 1 5 3 10 9 10 17 18 8
34 16 -9 -7 13 45 27 17 9 -5 3 41 16 1 31 2 9 -9 5 12 -16 1 12 8 8 3 1 17 11 10 1 7 10 4 17 12 11 8 15 16 15 10 11
9 10 22 16 24 -21 32 26 18 10 -6 -11 10 -0 4 -8 10 -14 9 -9 13 -14 3 18 1 7 0 -9 4 16 11 7 12 11 -1 5 12 7 0 -1 4 4 8
2 2 5 9 1 44 -13 3 33 8 19 35 19 1 13 -7 1 13 -2 26 17 -16 20 14 7 -2 -2 12 4 18 19 11 1 4 8 6 7 5 8 14 12 6 3
18 15 7 -1 -1 5 4 16 1 -0 19 30 16 28 20 26 15 4 5 -11 9 3 14 20 14 10 10 5 17 24 17 -5 6 22 11 6 8 17 2 16 10 11 34
21 18 23 25 20 2 5 8 13 16 5 -4 -3 8 3 3 23 28 25 29 26 11 7 5 6 10 9 18 22 24 16 14 15 13 13 9 11 15 -1 18 -2 9 3
15 18 25 22 24 24 25 12 7 2 -0 -2 -0 -2 -2 1 -4 3 10 3 7 11 1 7 8 3 7 7 10 1 2 8 9 12 13 7 4 12 -0 9 3 5 11
13 19 21 19 22 27 32 35 40 41 27 37 8 24 1 7 5 15 2 -6 6 14 13 5 8 7 -1 9 -2 -8 9 7 -5 -9 5 6 12 2 6 4 6 6 8
10 15 18 6 23 21 20 19 23 26 34 46 48 39 35 34 32 36 19 23 18 2 13 2 2 -3 -1 2 5 9 4 5 7 3 -2 0 1 -2 8 2 4 0 2
8 10 15 10 11 25 18 9 15 15 14 15 19 23 30 29 25 24 15 17 13 17 11 9 17 7 12 4 4 4 5 5 5 -2 -1 2 3 7 4 5 7 12 17
10 14 9 10 15 18 13 14 9 14 -4 -5 10 10 10 4 2 30 25 38 33 8 15 7 10 9 15 8 12 7 7 5 5 8 5 8 8 7 9 15 13 17 14
9 8 7 13 12 14 22 16 6 -8 -4 3 18 15 12 13 13 36 44 10 21 37 38 55 40 12 5 16 20 26 25 26 26 13 20 13 27 20 12 16 19 20 9
14 9 7 11 11 17 22 16 16 22 24 23 28 31 40 21 23 33 26 37 26 32 27 22 33 51 59 31 19 14 23 36 43 41 37 49 31 30 29 32 25 26 15
14 8 5 12 9 15 10 16 19 5 8 23 45 23 22 19 49 50 47 38 24 19 11 17 32 36 39 44 38 23 31 18 21 30 34 23 17 21 20 14 14 25 25
15 9 5 11 12 13 15 9 19 10 11 25 21 16 26 23 11 20 23 24 20 19 32 44 34 28 15 10 28 11 18 18 16 17 9 12 23 23 24 30 23 26 30
14 7 5 12 12 12 16 7 17 22 15 49 25 26 13 16 21 17 17 22 29 28 16 13 17 10 6 13 9 -0 14 13 23 12 18 9 13 24 27 21 19 11 6
14 7 6 13 13 14 16 12 13 12 31 33 29 26 24 29 29 32 22 13 7 7 16 22 26 37 1 14 28 48 36 6 -1 16 30 32 35 21 12 5 6 10 10
Height
5618 5627 5636 5643 5652 5657 5663 5670 5677 5683 5687 5693 5699 5702 5706 5710 5716 5722 5729 5734 5740 5745 5749 5753 5760 5764 5767 5772 5774 5777 5780 5782 5789 5793 5794 5794 5796 5799 5800 5800 5802 5804 5807
5608 5617 5625 5632 5640 5646 5653 5658 5666 5671 5676 5680 5685 5687 5693 5698 5704 5711 5718 5722 5726 5732 5738 5741 5747 5750 5755 5760 5763 5766 5769 5771 5776 5783 5785 5786 5787 5788 5790 5791 5793 5795 5797
5599 5607 5615 5621 5628 5633 5640 5647 5654 5660 5665 5669 5674 5680 5679 5686 5692 5699 5703 5707 5715 5723 5722 5726 5729 5735 5740 5744 5750 5754 5757 5760 5761 5766 5771 5775 5775 5778 5781 5781 5782 5784 5786
5588 5595 5603 5611 5617 5622 5628 5637 5644 5649 5653 5654 5660 5658 5669 5671 5678 5685 5691 5692 5700 5706 5710 5710 5710 5720 5725 5729 5734 5740 5743 5745 5748 5753 5757 5758 5764 5766 5767 5771 5772 5773 5774
5578 5586 5591 5598 5603 5609 5617 5622 5633 5637 5639 5645 5640 5648 5639 5659 5659 5661 5672 5684 5687 5688 5698 5699 5701 5711 5709 5712 5720 5723 5723 5732 5722 5738 5742 5741 5748 5753 5756 5759 5757 5760 5760
5566 5573 5579 5586 5594 5602 5604 5610 5615 5621 5623 5631 5636 5636 5649 5655 5654 5661 5665 5668 5676 5679 5686 5687 5693 5698 5701 5702 5705 5711 5718 5718 5721 5726 5723 5724 5733 5737 5734 5739 5745 5746 5747
5554 5558 5567 5574 5576 5574 5590 5596 5603 5607 5611 5618 5623 5627 5635 5639 5643 5646 5652 5660 5665 5670 5675 5677 5683 5687 5691 5693 5696 5702 5708 5710 5711 5714 5716 5714 5717 5723 5724 5729 5730 5726 5731
5539 5541 5554 5558 5564 5568 5576 5581 5587 5595 5600 5607 5608 5619 5616 5624 5628 5636 5643 5648 5652 5658 5662 5666 5671 5676 5681 5684 5687 5691 5696 5697 5701 5702 5703 5706 5710 5713 5713 5714 5715 5716 5718
5523 5529 5537 5536 5546 5552 5558 5562 5572 5578 5585 5591 5596 5602 5609 5614 5618 5623 5631 5637 5640 5644 5649 5654 5658 5661 5666 5671 5675 5677 5682 5685 5687 5689 5692 5693 5697 5700 5701 5702 5702 5701 5705
5517 5521 5524 5526 5530 5540 5541 5549 5555 5559 5569 5575 5582 5588 5593 5599 5605 5611 5616 5621 5625 5630 5633 5637 5642 5647 5652 5655 5660 5663 5667 5670 5673 5676 5680 5681 5681 5683 5685 5687 5690 5692 5693
5510 5514 5516 5518 5520 5525 5528 5533 5541 5544 5552 5558 5564 5572 5578 5583 5589 5592 5597 5603 5609 5616 5619 5623 5627 5632 5637 5641 5643 5647 5651 5654 5657 5661 5665 5667 5669 5670 5672 5675 5677 5677 5679
5505 5507 5507 5510 5512 5515 5519 5522 5525 5528 5534 5540 5550 5557 5561 5565 5571 5576 5580 5584 5592 5598 5603 5608 5612 5617 5621 5623 5628 5632 5635 5638 5641 5645 5649 5653 5655 5657 5658 5659 5661 5662 5664
5490 5493 5497 5501 5502 5502 5506 5510 5516 5517 5522 5528 5531 5537 5541 5546 5549 5553 5561 5564 5570 5578 5584 5590 5594 5599 5602 5605 5611 5614 5617 5622 5625 5629 5633 5635 5641 5644 5643 5644 5645 5648 5648
5476 5479 5481 5484 5487 5490 5493 5497 5501 5504 5507 5514 5518 5523 5527 5528 5533 5537 5540 5545 5551 5557 5561 5567 5573 5577 5582 5588 5593 5597 5600 5604 5609 5612 5613 5617 5620 5624 5631 5631 5632 5632 5631
5458 5459 5461 5464 5467 5470 5473 5477 5481 5486 5491 5496 5501 5506 5511 5516 5515 5516 5519 5523 5526 5534 5541 5548 5554 5557 5564 5568 5572 5578 5583 5587 5593 5596 5598 5601 5604 5609 5612 5617 5617 5619 5619
5446 5444 5444 5444 5446 5448 5453 5457 5460 5465 5469 5473 5477 5482 5487 5495 5495 5497 5501 5503 5509 5513 5522 5530 5535 5539 5544 5549 5556 5562 5565 5569 5571 5576 5580 5584 5588 5591 5595 5599 5601 5602 5602
5437 5435 5435 5434 5431 5430 5430 5430 5437 5439 5443 5449 5451 5454 5459 5467 5471 5474 5478 5483 5488 5493 5504 5510 5515 5519 5524 5529 5535 5539 5543 5547 5552 5557 5560 5565 5570 5571 5576 5581 5583 5584 5584
5427 5424 5422 5422 5419 5418 5416 5416 5416 5417 5418 5420 5423 5427 5429 5433 5438 5444 5447 5453 5463 5468 5483 5489 5492 5495 5500 5506 5513 5518 5522 5526 5534 5536 5541 5547 5551 5554 5558 5561 5563 5565 5566
5414 5410 5407 5405 5406 5407 5407 5407 5406 5404 5403 5404 5403 5402 5402 5406 5409 5414 5416 5423 5432 5440 5448 5458 5462 5465 5470 5477 5485 5491 5499 5507 5511 5516 5520 5524 5529 5534 5536 5541 5543 5545 5547
5406 5403 5402 5399 5397 5396 5395 5394 5392 5392 5392 5392 5390 5387 5386 5386 5388 5390 5391 5397 5402 5409 5416 5422 5426 5433 5441 5447 5455 5463 5472 5479 5485 5492 5496 5501 5508 5513 5516 5520 5526 5527 5529
5395 5394 5392 5389 5387 5385 5384 5382 5382 5382 5380 5378 5375 5371 5368 5366 5364 5362 5365 5370 5375 5379 5383 5388 5395 5404 5411 5420 5428 5435 5443 5453 5460 5468 5475 5480 5488 5494 5496 5503 5509 5511 5512
5385 5384 5383 5381 5379 5377 5374 5372 5370 5367 5363 5358 5353 5350 5349 5346 5342 5338 5340 5345 5351 5356 5362 5369 5375 5382 5391 5402 5410 5420 5426 5435 5442 5449 5460 5465 5471 5476 5480 5486 5492 5495 5497
5375 5375 5373 5371 5370 5368 5365 5362 5359 5355 5348 5342 5335 5332 5331 5329 5323 5321 5325 5332 5340 5346 5350 5356 5361 5367 5377 5387 5395 5407 5414 5425 5432 5436 5446 5451 5454 5461 5466 5471 5477 5480 5483
5365 5366 5365 5364 5363 5362 5360 5357 5352 5346 5341 5336 5331 5328 5325 5324 5321 5320 5322 5326 5331 5335 5339 5344 5350 5358 5367 5376 5385 5394 5404 5413 5419 5426 5431 5436 5442 5448 5454 5461 5466 5470 5473
5357 5358 5358 5357 5356 5355 5353 5350 5343 5337 5332 5325 5322 5322 5322 5321 5320 5320 5322 5325 5328 5332 5336 5341 5347 5354 5362 5370 5378 5387 5396 5404 5411 5417 5422 5429 5435 5440 5446 5451 5456 5461 5466
5350 5351 5352 5351 5350 5349 5347 5345 5337 5334 5328 5323 5320 5318 5318 5318 5318 5318 5320 5322 5326 5330 5335 5341 5348 5355 5363 5369 5377 5384 5389 5398 5405 5410 5415 5421 5428 5434 5441 5447 5452 5457 5461